Powrót do katalogu

QIANFAN-15

AktywnyŁącznośćPO
NORAD 60393·PAYLOAD·🇨🇳 China

Wystrzelony Aug 6, 2024 z Taiyuan Satellite Launch Center

Loading…

Następne Przeloty (najbliższe 24 godziny)

TLE

ŚwieżeSource: Space-Track

Epoka: Sep 14, 2026, 13:27 UTC

1 60393U 24140Q   26257.56076496  .00000026  00000-0  21567-4 0  9990
2 60393  88.9662 270.6289 0014390 114.2288 246.0368 13.51027977104500

Śledź QIANFAN-15 w czasie rzeczywistym z AllMySat

Download on the App Store